This is the latest recevied weather packets stored in our database for station/object W8RSN-13. If no packets are shown the sender has not sent any weather packets the latest 10 day(s).
| Time | Temp. | Humidity | Pressure | Rain* | Wind** | Luminosity | Snow |
|---|---|---|---|---|---|---|---|
| 1787926459 | 25.56° C | 58% | 1014.5 hPa | - | - | - | - |
| 1787926158 | 25° C | 61% | 1014.3 hPa | - | - | - | - |
| 1787925857 | 24.44° C | 61% | 1014.2 hPa | - | - | - | - |
| 1787925556 | 24.44° C | 64% | 1014.4 hPa | - | - | - | - |
| 1787925275 | 23.89° C | 64% | 1014.3 hPa | - | - | - | - |
| 1787924974 | 23.33° C | 65% | 1014.2 hPa | - | - | - | - |
| 1787924673 | 23.89° C | 66% | 1014.3 hPa | - | - | - | - |
| 1787924373 | 23.89° C | 63% | 1014.3 hPa | - | - | - | - |
| 1787924072 | 24.44° C | 64% | 1014.3 hPa | - | - | - | - |
| 1787923771 | 23.89° C | 65% | 1014.3 hPa | - | - | - | - |
| 1787923470 | 23.89° C | 64% | 1014.2 hPa | - | - | - | - |
| 1787923169 | 24.44° C | 65% | 1014 hPa | - | - | - | - |
| 1787922868 | 24.44° C | 64% | 1013.9 hPa | - | - | - | - |
| 1787922567 | 24.44° C | 64% | 1013.8 hPa | - | - | - | - |
| 1787922266 | 24.44° C | 62% | 1013.7 hPa | - | - | - | - |
| 1787921965 | 24.44° C | 62% | 1013.8 hPa | - | - | - | - |
| 1787921665 | 23.89° C | 62% | 1013.7 hPa | - | - | - | - |
| 1787921368 | 23.89° C | 63% | 1013.7 hPa | - | - | - | - |
| 1787921063 | 24.44° C | 63% | 1013.8 hPa | - | - | - | - |
| 1787920762 | 24.44° C | 63% | 1013.7 hPa | - | - | - | - |
| 1787920461 | 24.44° C | 64% | 1013.4 hPa | - | - | - | - |
| 1787920160 | 24.44° C | 63% | 1013.6 hPa | - | - | - | - |
| 1787919859 | 24.44° C | 63% | 1013.5 hPa | - | - | - | - |
| 1787919559 | 23.89° C | 65% | 1013.5 hPa | - | - | - | - |
| 1787919258 | 23.89° C | 65% | 1013.3 hPa | - | - | - | - |
* Rain since midnight (hover to see other rain measurements)
** Current wind speed in m/s (hover to see current wind gust speed)